EW9439 Weather Reports


Display with metric or nautical units.
time (UTC)temp
F
wind
direction
speed
MPH
gust
MPH
rain 1hr
in
rain 24hr
in
rain mn
in
humidity
%
barometer
mb
20260509230050 69 119 0.0 0.0 0.00 0.01 0.01 77 1008.5
20260509224537 70 119 0.0 0.0 0.00 0.01 0.01 77 1008.5
20260509223038 70 119 0.0 0.0 0.00 0.01 0.01 76 1008.5
20260509221539 70 120 0.0 0.0 0.00 0.01 0.01 76 1008.4
20260509220038 71 126 0.0 0.0 0.00 0.01 0.01 75 1008.3
20260509214532 71 126 0.0 0.0 0.00 0.01 0.01 74 1008.3
20260509213033 71 126 0.0 0.0 0.00 0.01 0.01 74 1008.2
20260509211535 71 126 0.0 0.0 0.00 0.01 0.01 72 1007.7
20260509210046 71 126 0.0 0.0 0.00 0.01 0.01 72 1007.9
20260509204606 71 137 0.0 0.0 0.00 0.01 0.01 71 1008.0
20260509203005 72 137 0.0 0.0 0.00 0.01 0.01 70 1007.9
20260509201504 72 137 0.0 0.0 0.00 0.01 0.01 69 1008.1
20260509200004 71 150 0.0 0.0 0.00 0.01 0.01 73 1008.2
20260509194507 71 151 0.0 0.0 0.00 0.01 0.01 73 1008.2
20260509193006 70 151 0.0 0.0 0.00 0.01 0.01 74 1008.3
20260509191507 69 151 0.0 0.0 0.00 0.01 0.01 76 1008.4
20260509190006 69 151 0.0 0.0 0.00 0.01 0.01 76 1008.6
20260509184509 69 151 0.0 0.0 0.00 0.01 0.01 76 1008.5
20260509183007 69 151 0.0 0.0 0.00 0.01 0.01 76 1008.7
20260509181510 68 151 0.0 0.0 0.00 0.01 0.01 78 1008.9
20260509180017 67 151 0.0 0.0 0.00 0.01 0.01 80 1008.9
20260509174559 66 149 0.0 0.0 0.00 0.01 0.01 84 1008.8
20260509173102 65 149 0.0 0.0 0.00 0.01 0.01 88 1008.9
20260509171547 64 149 0.0 0.0 0.00 0.01 0.01 89 1009.1
20260509170047 64 149 0.0 0.0 0.00 0.01 0.01 91 1009.4
20260509164554 63 149 0.0 0.0 0.01 0.01 0.01 91 1009.4
20260509163013 62 149 0.0 0.0 0.01 0.01 0.01 94 1009.6
20260509161521 62 149 0.0 0.0 0.01 0.01 0.01 94 1009.7
20260509160018 62 149 0.0 0.0 0.01 0.01 0.01 94 1009.6
20260509154516 61 149 0.0 0.0 0.00 0.00 0.00 93 1009.6
20260509153004 62 149 0.0 0.0 0.00 0.00 0.00 93 1009.6
20260509151509 62 148 0.0 0.0 0.00 0.00 0.00 93 1009.9
20260509150016 62 148 0.0 0.0 0.00 0.00 0.00 92 1010.1
20260509144508 62 148 0.0 0.0 0.00 0.00 0.00 92 1010.2
20260509143010 62 148 0.0 0.0 0.00 0.00 0.00 91 1010.1
20260509141528 61 148 0.0 0.0 0.00 0.00 0.00 91 1009.9
20260509140045 61 148 0.0 0.0 0.00 0.00 0.00 91 1009.7
20260509134557 61 148 0.0 0.0 0.00 0.00 0.00 91 1009.3
20260509133100 61 148 0.0 0.0 0.00 0.00 0.00 91 1009.0
20260509131600 61 148 0.0 0.0 0.00 0.00 0.00 91 1008.9
20260509131502 61 148 0.0 0.0 0.00 0.00 0.00 91 1008.8
20260509130006 61 148 0.0 0.0 0.00 0.00 0.00 92 1008.9
20260509124508 60 148 0.0 0.0 0.00 0.00 0.00 92 1008.7
20260509123010 60 148 0.0 0.0 0.00 0.00 0.00 92 1008.7
20260509121513 59 148 0.0 0.0 0.00 0.00 0.00 93 1008.8
20260509120023 59 148 0.0 0.0 0.00 0.00 0.00 93 1008.6
20260509114537 59 148 0.0 0.0 0.00 0.00 0.00 93 1008.6
20260509113047 59 148 0.0 0.0 0.00 0.00 0.00 92 1008.7
20260509111534 58 148 0.0 0.0 0.00 0.00 0.00 92 1008.8
20260509110035 58 148 0.0 0.0 0.00 0.00 0.00 92 1008.9
20260509104536 58 148 0.0 0.0 0.00 0.00 0.00 92 1008.3
20260509103048 58 148 0.0 0.0 0.00 0.00 0.00 92 1008.5
20260509101545 58 148 0.0 0.0 0.00 0.00 0.00 92 1008.3
20260509100013 58 148 0.0 0.0 0.00 0.00 0.00 92 1008.8
20260509094513 58 148 0.0 0.0 0.00 0.00 0.00 92 1009.1
20260509093014 58 148 0.0 0.0 0.00 0.00 0.00 92 1008.8
20260509091515 58 148 0.0 0.0 0.00 0.00 0.00 92 1008.9
20260509090015 58 148 0.0 0.0 0.00 0.00 0.00 92 1008.9
20260509084524 57 148 0.0 0.0 0.00 0.00 0.00 92 1008.9
20260509083019 57 148 0.0 0.0 0.00 0.00 0.00 92 1008.8
20260509081527 57 148 0.0 0.0 0.00 0.00 0.00 92 1008.9
20260509080038 57 148 0.0 0.0 0.00 0.00 0.00 91 1008.5
20260509074604 58 148 0.0 0.0 0.00 0.00 0.00 91 1008.8
20260509073055 58 148 0.0 0.0 0.00 0.00 0.00 91 1008.7
20260509071610 57 148 0.0 0.0 0.00 0.00 0.00 91 1008.4
20260509070059 57 148 0.0 0.0 0.00 0.00 0.00 91 1008.5
20260509070002 57 148 0.0 0.0 0.00 0.00 0.00 91 1008.6
20260509064601 57 148 0.0 0.0 0.00 0.00 0.00 90 1008.8
20260509064502 57 148 0.0 0.0 0.00 0.00 0.00 90 1008.8
20260509063003 57 148 0.0 0.0 0.00 0.00 0.00 90 1009.2
20260509061505 57 148 0.0 0.0 0.00 0.00 0.00 90 1009.7
20260509060011 57 148 0.0 0.0 0.00 0.00 0.00 90 1010.0
20260509054605 57 148 0.0 0.0 0.00 0.00 0.00 90 1010.3
20260509053052 57 148 0.0 0.0 0.00 0.00 0.00 90 1010.1
20260509051547 57 148 0.0 0.0 0.00 0.00 0.00 88 1009.9
20260509050054 58 148 0.0 0.0 0.00 0.00 0.00 88 1010.0
20260509044509 58 148 0.0 0.0 0.00 0.00 0.00 87 1010.2
20260509043009 58 148 0.0 0.0 0.00 0.00 0.00 87 1010.4
20260509041510 58 148 0.0 0.0 0.00 0.00 0.00 86 1010.3
20260509040015 59 148 0.0 0.0 0.00 0.00 0.00 85 1010.6
20260509034513 59 148 0.0 0.0 0.00 0.00 0.00 84 1010.5
20260509033014 60 148 0.0 0.0 0.00 0.00 0.00 83 1010.8
20260509031529 60 148 0.0 0.0 0.00 0.00 0.00 82 1011.1
20260509030019 60 148 0.0 0.0 0.00 0.00 0.00 81 1011.1
20260509024532 61 148 0.0 0.0 0.00 0.00 0.00 81 1011.1
20260509023023 61 148 0.0 0.0 0.00 0.00 0.00 79 1011.2
20260509021528 62 148 0.0 0.0 0.00 0.00 0.00 79 1011.4
20260509020035 62 148 0.0 0.0 0.00 0.00 0.00 77 1011.0
20260509014542 62 148 0.0 0.0 0.00 0.00 0.00 77 1011.1
20260509013110 62 148 0.0 0.0 0.00 0.00 0.00 76 1011.2
20260509013004 62 148 0.0 0.0 0.00 0.00 0.00 76 1011.2
20260509011506 62 148 0.0 0.0 0.00 0.00 0.00 75 1010.9
20260509010025 63 148 0.0 0.0 0.00 0.00 0.00 74 1010.8
20260509004529 63 148 0.0 0.0 0.00 0.00 0.00 73 1010.8
20260509003027 63 148 0.0 0.0 0.00 0.00 0.00 73 1010.8
20260509001529 64 148 0.0 0.0 0.00 0.00 0.00 71 1010.9
20260509000029 65 148 0.0 0.0 0.00 0.00 0.00 71 1010.9
20260508234531 65 148 0.0 0.0 0.00 0.00 0.00 71 1010.8
20260508233045 66 148 0.0 0.0 0.00 0.00 0.00 69 1010.7
20260508231551 66 148 0.0 0.0 0.00 0.00 0.00 68 1010.7